Weather Roundup
Issued by NWS

Home | Current Version | Previous Version | Text Only | Print | Product List | Glossary On
Versions: 1 2 3 4 5 6 7 8 9 10 11 12 13 14 15 16 17 18 19 20 21 22 23 24 25 26 27 28 29 30 31 32 33 34 35 36 37 38 39 40 41 42 43 44 45 46 47 48 49 50
000
NZUS93 KARX 302059
HRRWXR

CURRENT HOURLY OBSERVATIONS ACROSS
MUCH OF THE UPPER MISSISSIPPI VALLEY
NATIONAL WEATHER SERVICE LA CROSSE WI
400 PM CDT SUN AUG 30 2015


...SOUTHEAST MINNESOTA...


CITY           SKY/WX    TMP DP  RH WIND       PRES   REMARKS
ROCHESTER      MOSUNNY   72  65  78 S15       30.01F
ROCHESTER/MAYO FAIR      73  64  72 S12G17    30.01F
WINONA         MOSUNNY   73  63  68 S5        30.01S
AUSTIN         NOT AVBL
ALBERT LEA     SUNNY     75  66  73 S12G17    29.99F
DODGE CENTER   SUNNY     73  66  78 S14G20    30.00F
PRESTON        PTSUNNY   72  63  73 SW9       30.04S
OWATONNA       SUNNY     75  64  69 S9G17     29.98F
FARIBAULT      SUNNY     77  66  69 S14       29.97F
$$

...ELSEWHERE IN MINNESOTA...


CITY           SKY/WX    TMP DP  RH WIND       PRES   REMARKS
MINNEAPOLIS    MOSUNNY   81  63  54 S13       29.94F
INTNL FALLS    NOT AVBL
DULUTH         SUNNY     80  66  62 SW13      29.89F
RED WING       SUNNY     79  63  57 S12       29.96S
REDWOOD FALLS  SUNNY     83  64  52 S12       29.90F
MANKATO        SUNNY     75  64  69 S12G21    29.96S
WORTHINGTON    SUNNY     75  64  69 S12       29.96F
FAIRMONT         N/A    N/A N/A N/A MISG        N/A
$$

...SOUTHWEST WISCONSIN...


CITY           SKY/WX    TMP DP  RH WIND       PRES   REMARKS
LA CROSSE      PTSUNNY   75  64  68 S7        30.00F
PRAIRIE DU CHI MOSUNNY   74  61  63 S5        30.03F
BOSCOBEL       MOSUNNY   76  63  64 SW7       30.03F
LONE ROCK      NOT AVBL
PLATTEVILLE    MOSUNNY   73  66  78 SW5       30.05F
FORT MC COY    PTSUNNY   75  61  62 S5        30.02F
VIROQUA          N/A     73  63  71 SW8       30.05F
WIS DELLS      MOSUNNY   75  62  62 SW8       30.04S
$$

...ELSEWHERE IN WISCONSIN...


CITY           SKY/WX    TMP DP  RH WIND       PRES   REMARKS
MILWAUKEE      CLOUDY    70  62  76 SE9       30.03F
MADISON        PTSUNNY   73  62  68 VRB3      30.03F
GREEN BAY      MOSUNNY   74  65  73 S9        30.01S
EAU CLAIRE     NOT AVBL
BLACK RVR FLS  FAIR      77  62  61 SW6       30.01S
MEDFORD        SUNNY     74  64  72 S10       30.01F
WAUSAU         MOSUNNY   77  63  61 S9        29.99F
WIS RAPIDS     SUNNY     76  62  62 S9        30.02F
MARSHFIELD     SUNNY     77  62  59 S8        30.01F
RICE LAKE      SUNNY     75  63  66 S12       29.98F
$$

...NORTHEAST IOWA...


CITY           SKY/WX    TMP DP  RH WIND       PRES   REMARKS
DECORAH        CLOUDY    72  64  78 VRB6G13   30.03F
MASON CITY     PTSUNNY   74  66  76 S13       30.03F
CHARLES CITY   CLOUDY    72  66  83 S10       30.04F
OELWEIN        CLOUDY    72  66  83 SW8       30.05F
$$

...ELSEWHERE IN IOWA...


CITY           SKY/WX    TMP DP  RH WIND       PRES   REMARKS
DES MOINES     PTSUNNY   78  66  66 S7        30.01F
IOWA CITY      PTSUNNY   77  65  66 W3        30.04F
FORT DODGE     CLOUDY    73  64  73 S10       30.02F
$$

...NORTHERN ILLINOIS...


CITY           SKY/WX    TMP DP  RH WIND       PRES   REMARKS
CHICAGO-OHARE  PTSUNNY   77  63  61 W7        30.03F
CHICAGO-MIDWAY PTSUNNY   76  64  66 E8        30.03F
MOLINE         MOSUNNY   80  64  58 CALM      30.03F
ROCKFORD       MOSUNNY   75  62  64 CALM      30.05F
PEORIA         MOSUNNY   85  68  56 VRB6      30.02F
$$

NOTE: "FAIR" INDICATES FEW OR NO CLOUDS BELOW 12,000 FEET WITH NO
SIGNIFICANT WEATHER AND/OR OBSTRUCTIONS TO VISIBILITY. WIND
SPEEDS ARE IN MILES-PER-HOUR.



USA.gov is the U.S. government's official web portal to all federal, state and local government web resources and services.